Location: Maxwell Point
(34.0860°N, 81.2952°W)
Time: 02:30:20
(UTC-05:00)

Hubble Space Telescope - Visible Passes

Search period start: 10 December 2018 00:00
Search period end: 20 December 2018 00:00
Orbit: 537 x 540 km, 28.5° (Epoch: 09 December)

Date Brightness Start Highest point End Pass type
(mag) Time Alt. Az. Time Alt. Az. Time Alt. Az.
10 Dec 2.5 05:26:47 21° SSW 05:26:47 21° SSW 05:29:51 10° SSE visible
11 Dec 2.9 05:17:00 17° S 05:17:00 17° S 05:19:00 10° SSE visible
12 Dec 3.4 05:07:15 12° S 05:07:15 12° S 05:08:02 10° SSE visible
18 Dec 3.5 19:26:48 10° S 19:26:56 10° S 19:26:56 10° S visible
19 Dec 3.1 19:15:29 10° SSW 19:17:11 14° S 19:17:11 14° S visible
